Regional Weather Roundup
Issued by NWS

Home | Current Version | Previous Version | Text Only | Print | Product List | Glossary On
Versions: 1 2 3 4 5 6 7 8 9 10 11 12 13 14 15 16 17 18 19 20 21 22 23 24 25 26 27 28 29 30 31 32 33 34 35 36 37 38 39 40 41 42 43 44 45 46 47 48 49 50
000
ASUS43 KOAX 210302
RWRNE

WEATHER ROUNDUP FOR NEBRASKA
NATIONAL WEATHER SERVICE OMAHA NE
1000 PM CDT THU JUL 20 2017

NOTES: SATELLITE DATA IS BEING USED TO AUGMENT CLOUD COVER ABOVE
       12000 FEET.
       "FAIR" INDICATES FEW OR NO CLOUDS BELOW 12,000 FEET WITH NO
       SIGNIFICANT WEATHER AND/OR OBSTRUCTIONS TO VISIBILITY.


NEZ001>004-019>022-054>056-210400-
NEBRASKA PANHANDLE

CITY           SKY/WX    TMP DP  RH WIND       PRES   REMARKS
SCOTTSBLUFF    PTCLDY    80  60  50 SE8       29.96R
ALLIANCE       CLOUDY    80  60  50 SE9       29.94F
CHADRON        PTCLDY    80  61  52 SE8       29.89S
GORDON         FAIR      78  62  58 SE7       29.94F
KIMBALL        CLOUDY    79  59  50 S6        30.07R
SIDNEY         CLOUDY    79  58  48 SE7       30.02F
$$

NEZ057>060-069>072-079>082-210400-
SOUTHWEST NEBRASKA

CITY           SKY/WX    TMP DP  RH WIND       PRES   REMARKS
NORTH PLATTE   CLEAR     81  75  82 E12       29.90S
IMPERIAL       CLEAR     84  65  52 W5        29.92R
LEXINGTON      CLEAR     83  76  79 E8        29.90R HX  91
MCCOOK         CLEAR     86  62  44 SE8       29.87S
OGALLALA       PTCLDY    85  66  52 E6        29.94S
$$

NEZ005>010-023>029-035>040-094-210400-
NORTH CENTRAL NEBRASKA

CITY           SKY/WX    TMP DP  RH WIND       PRES   REMARKS
VALENTINE      CLEAR     83  62  49 SE7       29.92R
AINSWORTH      CLEAR     79  70  74 SE6       29.93R
BROKEN BOW     CLEAR     79  73  82 E7        29.91S
O`NEILL        CLEAR     80  76  87 E7        29.92R
ORD            CLEAR     80  72  76 E5        29.89R
THEDFORD       CLEAR     81  69  67 SE6       29.94S
$$

NEZ041-046>049-061>064-073>077-083>087-210400-
SOUTH CENTRAL NEBRASKA

CITY           SKY/WX    TMP DP  RH WIND       PRES   REMARKS
GRAND ISLAND   CLEAR     84  79  85 SE10      29.89S HX  96
AURORA         CLEAR     82  78  87 SE8       29.89S HX  91
HASTINGS       CLEAR     86  73  65 SE10      29.90R HX  93
HEBRON         CLEAR     87  69  56 S9        29.88S HX  91
HOLDREGE       CLEAR     80  76  85 E8        29.90R
KEARNEY        CLEAR     79  77  94 E6        29.90R
YORK           CLEAR     84  77  79 SE9       29.89S HX  94
$$

NEZ011>018-030>034-042>045-210400-
NORTHEAST NEBRASKA

CITY           SKY/WX    TMP DP  RH WIND       PRES   REMARKS
NORFOLK        CLEAR     77  67  71 E7        29.90R
ALBION         CLEAR     81  76  86 E3        29.90R
BLAIR          CLOUDY    84  77  80 E8        29.91R HX  94
COLUMBUS       CLEAR     79  75  87 E8        29.89S
FREMONT        CLEAR     84  76  76 E5        29.89S HX  93
TEKAMAH        CLEAR     80  69  69 E7        29.89R
WAYNE          CLEAR     76  74  96 CALM      29.91R
$$

NEZ050>053-065>068-078-088>093-210400-
SOUTHEAST NEBRASKA

CITY           SKY/WX    TMP DP  RH WIND       PRES   REMARKS
LINCOLN        CLEAR     88  71  57 SE10      29.89R HX  94
OMAHA EPPLEY   CLOUDY    89  76  65 E10       29.90R HX 100
BEATRICE       CLEAR     85  74  71 SE7       29.89R HX  92
FALLS CITY     PTCLDY    84  75  74 S6        29.90R HX  92
NEBRASKA CITY  CLEAR     82  77  86 S6        29.91R
PLATTSMOUTH    CLEAR     84  79  83 E6        29.91R HX  96
$$

NEZ044-045-051>053-067-210400-
OMAHA AREA

CITY           SKY/WX    TMP DP  RH WIND       PRES   REMARKS
OMAHA EPPLEY   CLOUDY    89  76  65 E10       29.90R HX 100
BLAIR          CLOUDY    84  77  80 E8        29.91R HX  94
FREMONT        CLEAR     84  76  76 E5        29.89S HX  93
MILLARD        CLOUDY    90  80  73 E7        29.90R HX 108
OFFUTT AFB     PTCLDY    85  78  78 E9        29.90R HX  97
PLATTSMOUTH    CLEAR     84  79  83 E6        29.91R HX  96
WAHOO          FAIR      83  77  82 SE7       29.90R HX  92
$$



USA.gov is the U.S. government's official web portal to all federal, state and local government web resources and services.